Birmingham International Airport

Airport
ICAO code: 
EGBB
IATA Code: 
BHX
Summary
ICAO Region: 
EUR
Territory: 
Location: 
Elmdon, England
Serving: 
Birmingham
Elevation: 
328 ft
Coordinates: 
Aerial View: 
52° 27' 12.906" N, 1° 44' 50.531" W
Metar
Observation
EGBB 261150Z 24005KT 210V280 CAVOK 07/03 Q1032
Station
Birmingham / Airport
Date/Time
2022-01-26 11:50:00
Wind direction
240°
Wind speed
05 kts
Lowest cloud amount
clouds and visibility OK
Temperature
7°C
Dew point
3°C
Humidity
75%
QNH
1032 hPa
Weather condition
n/a

Description

International airport serving Birmingham and the West Midlands conurbation.

Climatology

Temperate Marine climate/Oceanic climate (Köppen climate classification Cfb). Moderately cool summer and comparatively warm winter with a temperature range of only 14°C. Prevailing south-westerly winds from the Atlantic Ocean.

Runways

Designator Length Width Surface Rops
6/24 1315 30 ASP Yes/Yes
15/33 2605 46 ASP Yes/Yes

SKYbrary Partners:

Safety knowledge contributed by: